Weather History for State College, PA

Change the Weather History Date:

Saturday, October 27, 2012

  Actual Average Record
Temperature  
Mean Temperature 57 °F -  
Max Temperature 59 °F 56 °F 80 °F (1963)
Min Temperature 55 °F 38 °F 22 °F (1936)
Degree Days  
Heating Degree Days 8    
Growing Degree Days 7 (Base 50)    
Moisture  
Dew Point 53 °F    
Average Humidity 84    
Maximum Humidity 89    
Minimum Humidity 77    
Precipitation  
Precipitation 0.00 in - - ()
Sea Level Pressure  
Sea Level Pressure 29.99 in    
Wind  
Wind Speed 3 mph (East)    
Max Wind Speed 8 mph    
Max Gust Speed -    
Visibility 6 miles    
Events      
Averages and records for this station are not official NWS values.
T = Trace of Precipitation, MM = Missing Value Source: NWS Daily Summary

Daily Weather History Graph

Daily Weather History Graph

Search for Another Location

Airport:

Trip Planner

Search our weather history database for the weather conditions in past years. The results will help you decide how hot, cold, wet, or windy it might be!

Date:

Astronomy

Oct. 27, 2012 Rise Set
Actual Time 7:36 AM EDT 6:13 PM EDT
Civil Twilight 7:08 AM EDT 6:41 PM EDT
Nautical Twilight 6:36 AM EDT 7:13 PM EDT
Astronomical Twilight 6:04 AM EDT 7:45 PM EDT
Moon 4:58 PM EDT (10/27) 5:29 AM EDT (10/27)
Length of Visible Light 11h 32m
Length of Day
10h 36m
Waxing Gibbous, 96% of the Moon is Illuminated
Oct 27
Waxing Gibbous
Oct 29
Full
Nov 6
Last Quarter
Nov 13
New
Nov 20
First Quarter

Hourly Weather History & Observations

Time (EDT) Temp. Dew Point Humidity Pressure Visibility Wind Dir Wind Speed Gust Speed Precip Events Conditions
12:15 AM 58.3 °F 53.2 °F 83% 30.07 in 7.0 mi ENE 3.5 mph - N/A   Overcast
12:35 AM 58.1 °F 53.2 °F 84% 30.06 in 7.0 mi ENE 3.5 mph - N/A   Overcast
12:55 AM 57.7 °F 53.1 °F 84% 30.06 in 7.0 mi ENE 3.5 mph - N/A   Overcast
1:15 AM 58.1 °F 52.9 °F 83% 30.05 in 7.0 mi East 4.6 mph - N/A   Overcast
1:35 AM 57.4 °F 52.3 °F 83% 30.04 in 7.0 mi Calm Calm - N/A   Scattered Clouds
1:55 AM 57.4 °F 52.7 °F 84% 30.04 in 7.0 mi Calm Calm - N/A   Scattered Clouds
2:15 AM 57.4 °F 52.9 °F 85% 30.03 in 5.0 mi East 4.6 mph - N/A   Overcast
2:35 AM 57.9 °F 53.1 °F 84% 30.03 in 5.0 mi Calm Calm - N/A   Haze
2:55 AM 58.5 °F 53.2 °F 83% 30.03 in 5.0 mi Calm Calm - N/A   Haze
3:15 AM 57.2 °F 52.9 °F 85% 30.03 in 5.0 mi North 4.6 mph - N/A   Overcast
3:55 AM 57.7 °F 53.6 °F 86% 30.02 in 5.0 mi Calm Calm - N/A   Overcast
4:15 AM 57.4 °F 53.6 °F 87% 30.01 in 4.0 mi NE 3.5 mph - N/A   Overcast
4:35 AM 57.6 °F 53.8 °F 87% 30.01 in 4.0 mi NNE 3.5 mph - N/A   Overcast
4:55 AM 57.2 °F 53.8 °F 88% 30.00 in 4.0 mi NE 3.5 mph - N/A   Overcast
5:15 AM 57.4 °F 54.1 °F 89% 30.00 in 4.0 mi East 3.5 mph - N/A   Overcast
5:35 AM 56.7 °F 53.6 °F 89% 30.00 in 4.0 mi NNE 3.5 mph - N/A   Overcast
5:45 AM 57.2 °F 53.6 °F 88% 29.99 in 4.0 mi ENE 4.6 mph - N/A   Overcast
7:53 AM 57.2 °F 53.6 °F 88% 30.00 in 4.0 mi ESE 6.9 mph - N/A   Overcast
8:53 AM 59.0 °F 53.6 °F 82% 30.01 in 4.0 mi ESE 5.8 mph - N/A   Overcast
9:53 AM 59.0 °F 53.6 °F 82% 30.01 in 5.0 mi South 3.5 mph - N/A   Haze
10:53 AM 59.0 °F 51.8 °F 77% 30.00 in 7.0 mi SSE 6.9 mph - N/A   Overcast
11:53 AM 59.0 °F 51.8 °F 77% 30.00 in 7.0 mi South 6.9 mph - N/A   Overcast
12:53 PM 59.0 °F 51.8 °F 77% 29.98 in 7.0 mi South 8.1 mph - N/A   Overcast
1:53 PM 59.0 °F 51.8 °F 77% 29.95 in 7.0 mi South 5.8 mph - N/A   Overcast
2:53 PM 59.0 °F 51.8 °F 77% 29.95 in 7.0 mi Calm Calm - N/A   Overcast
3:53 PM 59.0 °F 51.8 °F 77% 29.94 in 7.0 mi Variable 4.6 mph - N/A   Overcast
4:53 PM 59.0 °F 51.8 °F 77% 29.94 in 7.0 mi Calm Calm - N/A   Overcast
5:53 PM 57.2 °F 51.8 °F 82% 29.94 in 8.0 mi SE 3.5 mph - N/A   Overcast
6:53 PM 57.2 °F 51.8 °F 82% 29.95 in 8.0 mi Calm Calm - N/A   Overcast
7:53 PM 57.2 °F 51.8 °F 82% 29.95 in 8.0 mi Calm Calm - N/A   Mostly Cloudy
9:15 PM 56.5 °F 52.0 °F 85% 29.94 in 7.0 mi NE 3.5 mph - N/A   Overcast
9:35 PM 56.3 °F 51.8 °F 85% 29.94 in 7.0 mi Calm Calm - N/A   Overcast
9:55 PM 57.0 °F 51.8 °F 83% 29.94 in 10.0 mi NNE 3.5 mph - N/A   Overcast
10:15 PM 56.5 °F 51.8 °F 84% 29.94 in 10.0 mi Calm Calm - N/A   Overcast
10:35 PM 56.3 °F 52.0 °F 85% 29.94 in 7.0 mi Calm Calm - N/A   Overcast
10:55 PM 56.3 °F 51.8 °F 85% 29.94 in 10.0 mi Calm Calm - N/A   Overcast
11:15 PM 56.3 °F 51.6 °F 84% 29.93 in 10.0 mi Calm Calm - N/A   Mostly Cloudy
11:35 PM 55.0 °F 51.6 °F 88% 29.93 in 7.0 mi Calm Calm - N/A   Mostly Cloudy
11:55 PM 55.6 °F 52.3 °F 89% 29.93 in 7.0 mi Calm Calm - N/A   Overcast